Location: Valencia
(39.4670°N, 0.3670°W)
Time: 08:48:33
(UTC+02:00)

ISS - Pass Details

Date: 07 July 2017
Orbit: 400 x 408 km, 51.6° (Epoch: 21 July)

Event Time Altitude Azimuth Distance (km) Brightness Sun altitude
Exits shadow 06:05:17 - 251° (WSW) 1,611 -1.4 -6.6°
Reaches altitude 10° 06:05:42 10° 253° (WSW) 1,448 -1.6 -6.6°
Maximum altitude 06:08:49 44° 327° (NNW) 569 -3.0 -6.1°
Drops below altitude 10° 06:11:58 10° 41° (NE) 1,460 0.6 -5.6°
Sets 06:14:07 0° 48° (NE) 2,324 2.6 -5.3°
